Inquirer Daily News

Weather

Get conditions and forecasts for any City, State, ZIP code or Country:  
Trenton, NJ
on Thursday, February 21, 2013

Thursday
Previous Day Next Day
Daily Summary
 ActualAverageRecord
Temperature
Mean Temperature °F 35°F  
Max Temperature 36°F 44°F 70°F (1930)
Min Temperature 24°F 27°F 6°F (1893)
Degree Days
Heating Degree Days 35 30  
Month to date heating degree days 707 665  
Since 1 July heating degree days 3415 3611  
Cooling Degree Days 0 0  
Month to date cooling degree days 0 0  
Year to date cooling degree days 0 0  
Moisture
Dew Point 12°F   
Average Humidity 49    
Maximum Humidity 60    
Minimum Humidity 38    
Precipitation
Precipitation 0.00 in 0.08 in 1.44 in (1951)
Month to date precipitation 1.14 1.66  
Year to date precipitation 3.96 4.82  
Wind
Wind Speed 13 mph   
Max Wind Speed 23 mph   
Max Gust Speed 32 mph   
Visibility 10 miles   
Events     

Key: T is trace of precipitation, MM is missing value
Source: NWS Daily Summary
Time(EST)TemperatureDew PointHumidity Pressure Visibility Wind DirectionWind SpeedGust SpeedPrecipitationEvents Conditions
12:53 AM 24.1°F 9.0°F 53% 30.03 in 10.0 miles NW 8.1 mph - N/A   Clear
1:53 AM 24.1°F 10.0°F 55% 30.02 in 10.0 miles WNW 6.9 mph 19.6 mph N/A   Overcast
2:53 AM 24.1°F 10.0°F 55% 30.02 in 10.0 miles WNW 9.2 mph - N/A   Overcast
3:53 AM 25.0°F 10.9°F 55% 30.01 in 10.0 miles NW 9.2 mph - N/A   Overcast
4:53 AM 25.0°F 10.9°F 55% 30.02 in 10.0 miles NW 11.5 mph 18.4 mph N/A   Overcast
5:53 AM 25.0°F 12.0°F 58% 30.03 in 10.0 miles NW 11.5 mph 24.2 mph N/A   Overcast
6:53 AM 25.0°F 10.9°F 55% 30.04 in 10.0 miles NNW 9.2 mph - N/A   Overcast
7:53 AM 26.1°F 10.9°F 53% 30.05 in 10.0 miles NW 9.2 mph 17.3 mph N/A   Overcast
9:53 AM 28.0°F 10.0°F 47% 30.07 in 10.0 miles NNW 16.1 mph 27.6 mph N/A   Overcast
10:53 AM 30.0°F 10.9°F 45% 30.08 in 10.0 miles NNW 15.0 mph 26.5 mph N/A   Overcast
11:53 AM 32.0°F 12.0°F 44% 30.06 in 10.0 miles NNW 16.1 mph 29.9 mph N/A   Clear
12:53 PM 33.1°F 12.9°F 43% 30.04 in 10.0 miles NW 13.8 mph 26.5 mph N/A   Mostly Cloudy
1:53 PM 34.0°F 14.0°F 44% 30.04 in 10.0 miles NW 17.3 mph 24.2 mph N/A   Partly Cloudy
2:53 PM 35.1°F 12.9°F 40% 30.06 in 10.0 miles NNW 15.0 mph 24.2 mph N/A   Clear
3:53 PM 36.0°F 12.9°F 39% 30.06 in 10.0 miles NNW 15.0 mph 24.2 mph N/A   Clear
4:53 PM 35.1°F 14.0°F 42% 30.09 in 10.0 miles NNW 17.3 mph 25.3 mph N/A   Clear
5:53 PM 33.1°F 14.0°F 46% 30.11 in 10.0 miles North 16.1 mph 24.2 mph N/A   Clear
6:53 PM 30.9°F 14.0°F 50% 30.18 in 10.0 miles North 10.4 mph 18.4 mph N/A   Clear
7:53 PM 30.0°F 14.0°F 51% 30.23 in 10.0 miles North 12.7 mph 23.0 mph N/A   Clear
8:53 PM 28.0°F 14.0°F 56% 30.25 in 10.0 miles North 13.8 mph 24.2 mph N/A   Clear
9:53 PM 26.1°F 12.9°F 58% 30.26 in 10.0 miles North 16.1 mph 21.9 mph N/A   Clear
10:53 PM 25.0°F 12.9°F 60% 30.27 in 10.0 miles North 13.8 mph 20.7 mph N/A   Clear
11:53 PM 24.1°F 12.0°F 60% 30.27 in 10.0 miles North 6.9 mph - N/A   Clear
Astronomy
Sunrise:06:44 AM (EST) Moon Rise:01:54 PM (EST)
Sunset:05:42 PM (EST) Moon Set:03:47 AM (EST)
Moon Phase
Feb. 21 Feb. 25 Mar. 04 Mar. 11 Mar. 19

Copyright © 2014 The Weather Underground, Inc.